Weather History for MKJP - December, 2012

Change the Weather History Date:

Sunday, December 16, 2012

  Actual Average Record
Temperature  
Mean Temperature 82 °F -  
Max Temperature 90 °F 84 °F 93 °F (2013)
Min Temperature 75 °F 74 °F 69 °F (2010)
Cooling Degree Days 18    
Growing Degree Days 32 (Base 50)    
Moisture  
Dew Point 71 °F    
Average Humidity 71    
Maximum Humidity 89    
Minimum Humidity 52    
Precipitation  
Precipitation 0.00 in - - ()
Sea Level Pressure  
Sea Level Pressure 29.90 in    
Wind  
Wind Speed 7 mph ()    
Max Wind Speed 22 mph    
Max Gust Speed -    
Visibility 7.9 miles    
Events      
Averages and records for this station are not official NWS values.
T = Trace of Precipitation, MM = Missing Value Source: Averaged Metar Reports

Daily Weather History Graph

Daily Weather History Graph

Search for Another Location

Airport or City:

Trip Planner

Search our weather history database for the weather conditions in past years. The results will help you decide how hot, cold, wet, or windy it might be!

Date:

Astronomy

Dec. 16, 2012 Rise Set
Actual Time 6:31 AM EST 5:34 PM EST
Civil Twilight 6:07 AM EST 5:58 PM EST
Nautical Twilight 5:40 AM EST 6:25 PM EST
Astronomical Twilight 5:13 AM EST 6:52 PM EST
Moon 9:26 AM EST (12/16) 9:19 PM EST (12/16)
Length of Visible Light 11h 51m
Length of Day
11h 03m
Waxing Crescent, 16% of the Moon is Illuminated
Dec 16
Waxing Crescent
Dec 20
First Quarter
Dec 28
Full
Jan 4
Last Quarter
Jan 11
New

Hourly Weather History & Observations

Time (EST) Temp. Heat Index Dew Point Humidity Pressure Visibility Wind Dir Wind Speed Gust Speed Precip Events Conditions
12:00 AM 78.8 °F - 68.0 °F 69% 29.92 in 6.2 mi NW 4.6 mph - N/A   Partly Cloudy
1:00 AM 77 °F - 70 °F 72% 29.91 in 12 mi West 2.3 mph - -   Haze
1:00 AM 77.0 °F - 69.8 °F 78% 29.89 in 6.2 mi West 2.3 mph - N/A   Partly Cloudy
2:00 AM 77.0 °F - 69.8 °F 78% 29.89 in 6.2 mi NW 4.6 mph - N/A   Partly Cloudy
3:00 AM 78.8 °F - 69.8 °F 74% 29.86 in 6.2 mi North 6.9 mph - N/A   Partly Cloudy
4:00 AM 78 °F - 69 °F 67% 29.88 in 12 mi North 8.1 mph - -   Haze
4:00 AM 77.0 °F - 69.8 °F 78% 29.86 in 6.2 mi North 8.1 mph - N/A   Partly Cloudy
5:00 AM 77.0 °F - 68.0 °F 74% 29.89 in 6.2 mi North 8.1 mph - N/A   Partly Cloudy
6:00 AM 75.2 °F - 68.0 °F 78% 29.89 in 6.2 mi WNW 5.8 mph - N/A   Partly Cloudy
7:00 AM 75 °F - 71 °F 84% 29.92 in 14 mi West 3.5 mph - -   Haze
7:00 AM 75.2 °F - 71.6 °F 89% 29.92 in 6.2 mi West 3.5 mph - N/A   Partly Cloudy
8:00 AM 78.8 °F - 69.8 °F 74% - 6.2 mi North 3.5 mph - N/A   Partly Cloudy
9:00 AM 82.4 °F 87.2 °F 71.6 °F 70% 29.95 in 6.2 mi North 4.6 mph - N/A   Partly Cloudy
10:00 AM 85 °F - 71 °F 54% 29.97 in 16 mi NNW 2.3 mph - -   Haze
10:00 AM 86.0 °F 91.8 °F 71.6 °F 62% 29.95 in 6.2 mi NNW 2.3 mph - N/A   Partly Cloudy
11:00 AM 84.2 °F 89.6 °F 71.6 °F 66% 29.95 in 6.2 mi South 8.1 mph - N/A   Partly Cloudy
12:00 PM 86.0 °F 93.4 °F 73.4 °F 66% 29.92 in 6.2 mi SE 18.4 mph - N/A   Partly Cloudy
1:00 PM 88 °F - 73 °F 52% 29.89 in 16 mi SE 20.7 mph - -   Haze
1:00 PM 87.8 °F 95.6 °F 73.4 °F 62% 29.89 in 6.2 mi SE 20.7 mph - N/A   Partly Cloudy
2:00 PM 87.8 °F 95.6 °F 73.4 °F 62% 29.86 in 6.2 mi SE 21.9 mph - N/A   Partly Cloudy
3:00 PM 86.0 °F 95.1 °F 75.2 °F 70% 29.86 in 6.2 mi SE 20.7 mph - N/A   Partly Cloudy
4:00 PM 87.8 °F 95.6 °F 73.4 °F 62% 29.86 in 6.2 mi SE 21.9 mph - N/A   Partly Cloudy
6:00 PM 86.0 °F 93.4 °F 73.4 °F 66% 29.86 in 6.2 mi SE 20.7 mph - N/A   Partly Cloudy
7:00 PM 82 °F - 71 °F 61% 29.89 in 12 mi SE 16.1 mph - -   Scattered Clouds
7:00 PM 82.4 °F 87.2 °F 71.6 °F 70% 29.89 in 6.2 mi SE 16.1 mph - N/A   Partly Cloudy
8:00 PM 80.6 °F 84.6 °F 71.6 °F 74% 29.89 in 6.2 mi East 5.8 mph - N/A   Partly Cloudy
9:00 PM 78.8 °F - 73.4 °F 83% 29.92 in 6.2 mi North 8.1 mph - N/A   Partly Cloudy
10:00 PM 79 °F - 72 °F 73% 29.94 in 12 mi North 4.6 mph - -   Scattered Clouds
10:00 PM 78.8 °F - 71.6 °F 78% 29.92 in 6.2 mi North 4.6 mph - N/A   Partly Cloudy
11:00 PM 78.8 °F - 71.6 °F 78% 29.95 in 6.2 mi North 4.6 mph - N/A   Partly Cloudy